ATLAS 5 CENTAUR DEB, 57590

Orbit data source: Space-Track

ATLAS 5 CENTAUR DEB, 57590 is space debris in HEO originally from a launch on Wed, 17 Oct 2018 UTC launched from the Air Force Eastern Test Range (AFETR). Debris objects in space refer to the collection of defunct objects orbiting the Earth. Examples of debris include non-operational satellites, rocket bodies, and fragments generated from explosions, collisions, or faulty payload assembly.

Loading next visibility...
Identifier
57590, 2018-079HR
Orbit
HEO
Country
Flag of USUS
Related business
Flag of USUnited Launch Alliance/Lockheed Martin (US)
Manufacturer
ULA Decatur
Mission
Spacecraft
Bus & Motor
Unknown
Mass
Unknown
Launch date (UTC)
2018-10-17 (7 years ago)
Launch vehicle
Unknown
Launch site
Air Force Eastern Test Range (AFETR)
Object type
Payload
Rocket body
Debris
Shape & HBR
Unknown shape, 1.1 m
Radar Cross Section
RCS unknown

Expand to show TLE details & history
Last TLE update: 4 days ago

TLE from 4 days ago
0 ATLAS 5 CENTAUR DEB
1 57590U 18079HR  25337.77654304 -.00000117  00000-0  00000+0 0  9996
2 57590  11.4406 102.2720 4967594 174.3924 194.4174  1.56219184 23408
Epoch: 2025-12-03T18:38Z
TLE epoch observation values (Epoch: 2025-12-03T18:38:13.318Z)
Latitude
-0°
Longitude
109.80225°
Altitude
40,381.732 km
Speed
2.084 km/s
True Right ascension
06h 48m 48s
True Declination
0° 00' 00"
Sunlit
Object was in daylight at epoch
Visualization orbit readout
Latitude
Unknown
Longitude
Unknown
Altitude
Unknown
Speed
Unknown
Apparent Right ascension
Unknown
Apparent Declination
Unknown
Sunlit
N/A
Visualization observer readout
Local Sidereal Time
12:29:15
Azimuth
Unknown
Elevation
Unknown
Doppler factor
Unknown
Orbital elements
Apogee altitude
40,585.223 km
Perigee altitude
9,411.889 km
Semi-major axis
31,376.693 km
Eccentricity
0.49676
Inclination
11.4406°
RAAN
102.272°
Arg. of periapsis
174.3924°
True anomaly
185.60285°
Mean anomaly
194.4174°
Eccentric anomaly
189.64752°
Mean motion
0.39051 °/min
Orbital period
921.87 mins
BSTAR
0
Loading maneuver chart data...
Computing Atmospheric mass density...

Documentation

Showing up to 5 results
|